User: anonymous   Login
Location: Unspecified
(0.0000°N, 0.0000°E)
Time: 02:23:07
(UTC+00:00)
Language:

FO-29 - Orbit

View from above orbital plane
View from above orbital plane
View from above satellite
View from above satellite

Ground track
Ground track

The orbit data is extracted from the following two-line orbital elements,

1 24278U 96046B   20185.73100877 -.00000017  00000-0  20988-4 0  9997
2 24278  98.5854 293.4307 0349898 332.8615  25.4606 13.53097787179337
Epoch (UTC): 03 July 2020 17:32:39
Eccentricity: 0.0349898
inclination: 98.5854°
perigee height: 800 km
apogee height: 1321 km
right ascension of ascending node: 293.4307°
argument of perigee: 332.8615°
revolutions per day: 13.53097787
mean anomaly at epoch: 25.4606°
orbit number at epoch: 17933

The dashed part of the orbit path shows where the satellite is in the earth's shadow,  

DLR